Location: Brachbach
(49.1847°N, 9.7240°E)
Time: 14:24:16
(UTC+00:00)

Nimbus 7 Rocket - Pass Details

Date: 14 August 2024
Orbit: 921 x 965 km, 99.4° (Epoch: 14 September)

Event Time Altitude Azimuth Distance (km) Brightness Sun altitude
Rises 00:57:14 0° 12° (NNE) 3,593 8.8 -23.4°
Reaches altitude 10° 00:59:43 10° 8° (N) 2,641 7.8 -23.2°
Maximum altitude 01:05:23 52° 294° (WNW) 1,138 4.8 -22.8°
Enters shadow 01:07:05 40° 246° (WSW) 1,342 4.8 -22.7°
